Time,TemperatureF,DewpointF,PressureIn,WindDirection,WindDirectionDegrees,WindSpeedMPH,WindSpeedGustMPH,Humidity,HourlyPrecipIn,Conditions,Clouds,dailyrainin,SoftwareType,DateUTC
2013-08-24 00:00:00,84.0,81.0,30.02,ESE,120,17.0,18.0,90,-99.99,,,-99.99,,2013-08-24 04:00:00,
2013-08-24 00:44:00,84.0,81.0,30.02,ESE,120,17.0,18.0,90,-99.99,,,-99.99,,2013-08-24 04:44:00,
2013-08-24 00:53:00,84.0,81.0,30.02,ESE,120,17.0,18.0,90,-99.99,,,-99.99,,2013-08-24 04:53:00,
2013-08-24 01:00:00,84.0,80.0,30.02,SE,130,17.0,18.0,86,-99.99,,,-99.99,,2013-08-24 05:00:00,
2013-08-24 01:43:00,84.0,80.0,30.02,SE,130,17.0,18.0,86,-99.99,,,-99.99,,2013-08-24 05:43:00,
2013-08-24 01:53:00,84.0,80.0,30.02,SE,130,17.0,18.0,86,-99.99,,,-99.99,,2013-08-24 05:53:00,
2013-08-24 02:00:00,84.0,78.0,30.01,SE,130,16.0,17.0,82,-99.99,,,-99.99,,2013-08-24 06:00:00,
2013-08-24 02:41:00,84.0,78.0,30.01,SE,130,16.0,17.0,82,-99.99,,,-99.99,,2013-08-24 06:41:00,
2013-08-24 02:52:00,84.0,78.0,30.01,SE,130,16.0,17.0,82,-99.99,,,-99.99,,2013-08-24 06:52:00,
2013-08-24 03:00:00,84.0,79.0,29.99,ESE,120,14.0,15.0,85,-99.99,,,-99.99,,2013-08-24 07:00:00,
2013-08-24 03:42:00,84.0,79.0,29.99,ESE,120,14.0,15.0,85,-99.99,,,-99.99,,2013-08-24 07:42:00,
2013-08-24 03:53:00,84.0,79.0,29.99,ESE,120,14.0,15.0,85,-99.99,,,-99.99,,2013-08-24 07:53:00,
2013-08-24 04:00:00,83.0,79.0,29.98,ESE,110,10.0,11.0,86,-99.99,,,-99.99,,2013-08-24 08:00:00,
2013-08-24 04:42:00,83.0,79.0,29.98,ESE,110,10.0,11.0,86,-99.99,,,-99.99,,2013-08-24 08:42:00,
2013-08-24 04:52:00,83.0,79.0,29.98,ESE,110,10.0,11.0,86,-99.99,,,-99.99,,2013-08-24 08:52:00,
2013-08-24 05:00:00,83.0,78.0,29.98,SE,130,10.0,13.0,84,-99.99,,,-99.99,,2013-08-24 09:00:00,
2013-08-24 05:44:00,83.0,78.0,29.98,SE,130,10.0,13.0,84,-99.99,,,-99.99,,2013-08-24 09:44:00,
2013-08-24 05:53:00,83.0,78.0,29.98,SE,130,10.0,13.0,84,-99.99,,,-99.99,,2013-08-24 09:53:00,
2013-08-24 06:00:00,83.0,80.0,30.00,SE,130,9.0,10.0,88,-99.99,,,-99.99,,2013-08-24 10:00:00,
2013-08-24 06:42:00,83.0,80.0,30.00,SE,130,9.0,10.0,88,-99.99,,,-99.99,,2013-08-24 10:42:00,
2013-08-24 06:52:00,83.0,80.0,30.00,SE,130,9.0,10.0,88,-99.99,,,-99.99,,2013-08-24 10:52:00,
2013-08-24 07:00:00,83.0,78.0,30.02,SSE,150,16.0,17.0,83,-99.99,,,-99.99,,2013-08-24 11:00:00,
2013-08-24 07:22:00,83.0,78.0,30.02,SSE,150,16.0,17.0,83,-99.99,,,-99.99,,2013-08-24 11:22:00,
2013-08-24 07:32:00,83.0,78.0,30.02,SSE,150,16.0,17.0,83,-99.99,,,-99.99,,2013-08-24 11:32:00,
2013-08-24 07:42:00,83.0,78.0,30.02,SSE,150,16.0,17.0,83,-99.99,,,-99.99,,2013-08-24 11:42:00,
2013-08-24 07:52:00,83.0,78.0,30.02,SSE,150,16.0,17.0,83,-99.99,,,-99.99,,2013-08-24 11:52:00,
2013-08-24 08:00:00,84.0,80.0,30.03,SSE,160,10.0,10.0,88,-99.99,,,-99.99,,2013-08-24 12:00:00,
2013-08-24 08:21:00,84.0,80.0,30.03,SSE,160,10.0,10.0,88,-99.99,,,-99.99,,2013-08-24 12:21:00,
2013-08-24 08:32:00,84.0,80.0,30.03,SSE,160,10.0,10.0,88,-99.99,,,-99.99,,2013-08-24 12:32:00,
2013-08-24 08:41:00,84.0,80.0,30.03,SSE,160,10.0,10.0,88,-99.99,,,-99.99,,2013-08-24 12:41:00,
2013-08-24 08:52:00,84.0,80.0,30.03,SSE,160,10.0,10.0,88,-99.99,,,-99.99,,2013-08-24 12:52:00,
2013-08-24 09:00:00,85.0,78.0,30.04,SSE,150,10.0,11.0,81,-99.99,,,-99.99,,2013-08-24 13:00:00,
2013-08-24 09:42:00,85.0,78.0,30.04,SSE,150,10.0,11.0,81,-99.99,,,-99.99,,2013-08-24 13:42:00,
2013-08-24 09:52:00,85.0,78.0,30.04,SSE,150,10.0,11.0,81,-99.99,,,-99.99,,2013-08-24 13:52:00,
2013-08-24 10:00:00,85.0,81.0,30.06,SE,140,10.0,13.0,87,-99.99,,,-99.99,,2013-08-24 14:00:00,
2013-08-24 10:21:00,85.0,81.0,30.06,SE,140,10.0,13.0,87,-99.99,,,-99.99,,2013-08-24 14:21:00,
2013-08-24 10:31:00,85.0,81.0,30.06,SE,140,10.0,13.0,87,-99.99,,,-99.99,,2013-08-24 14:31:00,
2013-08-24 10:42:00,85.0,81.0,30.06,SE,140,10.0,13.0,87,-99.99,,,-99.99,,2013-08-24 14:42:00,
2013-08-24 10:52:00,85.0,81.0,30.06,SE,140,10.0,13.0,87,-99.99,,,-99.99,,2013-08-24 14:52:00,
2013-08-24 11:00:00,85.0,80.0,30.07,ESE,120,11.0,13.0,85,-99.99,,,-99.99,,2013-08-24 15:00:00,
2013-08-24 11:21:00,85.0,80.0,30.07,ESE,120,11.0,13.0,85,-99.99,,,-99.99,,2013-08-24 15:21:00,
2013-08-24 11:34:00,85.0,80.0,30.07,ESE,120,11.0,13.0,85,-99.99,,,-99.99,,2013-08-24 15:34:00,
2013-08-24 11:45:00,85.0,80.0,30.07,ESE,120,11.0,13.0,85,-99.99,,,-99.99,,2013-08-24 15:45:00,
2013-08-24 11:54:00,85.0,80.0,30.07,ESE,120,11.0,13.0,85,-99.99,,,-99.99,,2013-08-24 15:54:00,
2013-08-24 12:00:00,85.0,80.0,30.07,ESE,120,13.0,13.0,84,-99.99,,,-99.99,,2013-08-24 16:00:00,
2013-08-24 12:23:00,85.0,80.0,30.07,ESE,120,13.0,13.0,84,-99.99,,,-99.99,,2013-08-24 16:23:00,
2013-08-24 12:33:00,85.0,80.0,30.07,ESE,120,13.0,13.0,84,-99.99,,,-99.99,,2013-08-24 16:33:00,
2013-08-24 12:42:00,85.0,80.0,30.07,ESE,120,13.0,13.0,84,-99.99,,,-99.99,,2013-08-24 16:42:00,
2013-08-24 12:53:00,85.0,80.0,30.07,ESE,120,13.0,13.0,84,-99.99,,,-99.99,,2013-08-24 16:53:00,
2013-08-24 13:00:00,85.0,80.0,30.07,ESE,120,10.0,11.0,85,-99.99,,,-99.99,,2013-08-24 17:00:00,
2013-08-24 13:23:00,85.0,80.0,30.07,ESE,120,10.0,11.0,85,-99.99,,,-99.99,,2013-08-24 17:23:00,
2013-08-24 13:33:00,85.0,80.0,30.07,ESE,120,10.0,11.0,85,-99.99,,,-99.99,,2013-08-24 17:33:00,
2013-08-24 13:42:00,85.0,80.0,30.07,ESE,120,10.0,11.0,85,-99.99,,,-99.99,,2013-08-24 17:42:00,
2013-08-24 13:52:00,85.0,80.0,30.07,ESE,120,10.0,11.0,85,-99.99,,,-99.99,,2013-08-24 17:52:00,
2013-08-24 14:00:00,85.0,81.0,30.08,ESE,120,10.0,10.0,85,-99.99,,,-99.99,,2013-08-24 18:00:00,
2013-08-24 14:21:00,85.0,81.0,30.08,ESE,120,10.0,10.0,85,-99.99,,,-99.99,,2013-08-24 18:21:00,
2013-08-24 14:32:00,85.0,81.0,30.08,ESE,120,10.0,10.0,85,-99.99,,,-99.99,,2013-08-24 18:32:00,
2013-08-24 14:42:00,85.0,81.0,30.08,ESE,120,10.0,10.0,85,-99.99,,,-99.99,,2013-08-24 18:42:00,
2013-08-24 14:53:00,85.0,81.0,30.08,ESE,120,10.0,10.0,85,-99.99,,,-99.99,,2013-08-24 18:53:00,
2013-08-24 15:00:00,86.0,81.0,30.07,SE,130,9.0,10.0,85,-99.99,,,-99.99,,2013-08-24 19:00:00,
2013-08-24 15:21:00,86.0,81.0,30.07,SE,130,9.0,10.0,85,-99.99,,,-99.99,,2013-08-24 19:21:00,
2013-08-24 15:31:00,86.0,81.0,30.07,SE,130,9.0,10.0,85,-99.99,,,-99.99,,2013-08-24 19:31:00,
2013-08-24 15:42:00,86.0,81.0,30.07,SE,130,9.0,10.0,85,-99.99,,,-99.99,,2013-08-24 19:42:00,
2013-08-24 15:52:00,86.0,81.0,30.07,SE,130,9.0,10.0,85,-99.99,,,-99.99,,2013-08-24 19:52:00,
2013-08-24 16:00:00,86.0,81.0,30.05,ESE,110,8.0,9.0,84,-99.99,,,-99.99,,2013-08-24 20:00:00,
2013-08-24 16:21:00,86.0,81.0,30.05,ESE,110,8.0,9.0,84,-99.99,,,-99.99,,2013-08-24 20:21:00,
2013-08-24 16:32:00,86.0,81.0,30.05,ESE,110,8.0,9.0,84,-99.99,,,-99.99,,2013-08-24 20:32:00,
2013-08-24 16:42:00,86.0,81.0,30.05,ESE,110,8.0,9.0,84,-99.99,,,-99.99,,2013-08-24 20:42:00,
2013-08-24 16:52:00,86.0,81.0,30.05,ESE,110,8.0,9.0,84,-99.99,,,-99.99,,2013-08-24 20:52:00,
2013-08-24 17:00:00,87.0,80.0,30.03,East,90,8.0,9.0,79,-99.99,,,-99.99,,2013-08-24 21:00:00,
2013-08-24 17:22:00,87.0,80.0,30.03,East,90,8.0,9.0,79,-99.99,,,-99.99,,2013-08-24 21:22:00,
2013-08-24 17:34:00,87.0,80.0,30.03,East,90,8.0,9.0,79,-99.99,,,-99.99,,2013-08-24 21:34:00,
2013-08-24 17:43:00,87.0,80.0,30.03,East,90,8.0,9.0,79,-99.99,,,-99.99,,2013-08-24 21:43:00,
2013-08-24 17:54:00,87.0,80.0,30.03,East,90,8.0,9.0,79,-99.99,,,-99.99,,2013-08-24 21:54:00,
2013-08-24 18:00:00,86.0,81.0,30.04,ESE,110,8.0,9.0,83,-99.99,,,-99.99,,2013-08-24 22:00:00,
2013-08-24 18:23:00,86.0,81.0,30.04,ESE,110,8.0,9.0,83,-99.99,,,-99.99,,2013-08-24 22:23:00,
2013-08-24 18:33:00,86.0,81.0,30.04,ESE,110,8.0,9.0,83,-99.99,,,-99.99,,2013-08-24 22:33:00,
2013-08-24 18:42:00,86.0,81.0,30.04,ESE,110,8.0,9.0,83,-99.99,,,-99.99,,2013-08-24 22:42:00,
2013-08-24 18:53:00,86.0,81.0,30.04,ESE,110,8.0,9.0,83,-99.99,,,-99.99,,2013-08-24 22:53:00,
2013-08-24 19:22:00,85.0,81.0,30.05,SE,130,11.0,13.0,87,-99.99,,,-99.99,,2013-08-24 23:22:00,
2013-08-24 19:34:00,85.0,81.0,30.05,SE,130,11.0,13.0,87,-99.99,,,-99.99,,2013-08-24 23:34:00,
2013-08-24 19:42:00,85.0,81.0,30.05,SE,130,11.0,13.0,87,-99.99,,,-99.99,,2013-08-24 23:42:00,
2013-08-24 20:00:00,84.0,78.0,30.06,ESE,120,13.0,14.0,82,-99.99,,,-99.99,,2013-08-25 00:00:00,
2013-08-24 20:21:00,84.0,78.0,30.06,ESE,120,13.0,14.0,82,-99.99,,,-99.99,,2013-08-25 00:21:00,
2013-08-24 20:32:00,84.0,78.0,30.06,ESE,120,13.0,14.0,82,-99.99,,,-99.99,,2013-08-25 00:32:00,
2013-08-24 20:41:00,84.0,78.0,30.06,ESE,120,13.0,14.0,82,-99.99,,,-99.99,,2013-08-25 00:41:00,
2013-08-24 20:52:00,84.0,78.0,30.06,ESE,120,13.0,14.0,82,-99.99,,,-99.99,,2013-08-25 00:52:00,
2013-08-24 21:00:00,84.0,78.0,30.07,SE,140,13.0,14.0,83,-99.99,,,-99.99,,2013-08-25 01:00:00,
2013-08-24 21:22:00,84.0,78.0,30.07,SE,140,13.0,14.0,83,-99.99,,,-99.99,,2013-08-25 01:22:00,
2013-08-24 21:31:00,84.0,78.0,30.07,SE,140,13.0,14.0,83,-99.99,,,-99.99,,2013-08-25 01:31:00,
2013-08-24 21:42:00,84.0,78.0,30.07,SE,140,13.0,14.0,83,-99.99,,,-99.99,,2013-08-25 01:42:00,
2013-08-24 21:52:00,84.0,78.0,30.07,SE,140,13.0,14.0,83,-99.99,,,-99.99,,2013-08-25 01:52:00,
2013-08-24 22:00:00,84.0,80.0,30.08,ESE,110,11.0,13.0,87,-99.99,,,-99.99,,2013-08-25 02:00:00,
2013-08-24 22:22:00,84.0,80.0,30.08,ESE,110,11.0,13.0,87,-99.99,,,-99.99,,2013-08-25 02:22:00,
2013-08-24 22:33:00,84.0,80.0,30.08,ESE,110,11.0,13.0,87,-99.99,,,-99.99,,2013-08-25 02:33:00,
2013-08-24 22:42:00,84.0,80.0,30.08,ESE,110,11.0,13.0,87,-99.99,,,-99.99,,2013-08-25 02:42:00,
2013-08-24 22:52:00,84.0,80.0,30.08,ESE,110,11.0,13.0,87,-99.99,,,-99.99,,2013-08-25 02:52:00,
2013-08-24 23:00:00,-999.0,-99.9,-100.00,East,100,13.0,14.0,-999,-99.99,,,-99.99,,2013-08-25 03:00:00,
2013-08-24 23:22:00,84.0,79.0,30.09,East,100,13.0,14.0,85,-99.99,,,-99.99,,2013-08-25 03:22:00,
2013-08-24 23:34:00,84.0,79.0,30.09,East,100,13.0,14.0,85,-99.99,,,-99.99,,2013-08-25 03:34:00,
2013-08-24 23:44:00,84.0,79.0,30.09,East,100,13.0,14.0,85,-99.99,,,-99.99,,2013-08-25 03:44:00,
2013-08-24 23:54:00,84.0,79.0,30.09,East,100,13.0,14.0,85,-99.99,,,-99.99,,2013-08-25 03:54:00,